Location: Wolf Lake
(46.8518°N, 80.6381°W)
Time: 09:56:56
(UTC-04:00)

ISS - Pass Details

Date: 16 March 2026
Orbit: 416 x 425 km, 51.6° (Epoch: 19 April)

Event Time Altitude Azimuth Distance (km) Brightness Sun altitude
Rises 21:45:09 0° 279° (W) 2,386 1.3 -23.3°
Reaches altitude 10° 21:47:22 10° 288° (WNW) 1,518 0.1 -23.6°
Enters shadow 21:50:05 33° 337° (NNW) 732 -2.2 -24.1°
